OM1PU-6 Weather Reports


time (UTC)temp
C
wind
direction
speed
KPH
gust
KPH
rain 1hr
cm
rain 24hr
cm
rain mn
cm
humidity
%
barometer
mb
20260507150319 20 253 0.0 0.0 0.00 0.00 0.00 49 1024.0
20260507144818 20 129 0.0 0.0 0.00 0.00 0.00 49 1024.0
20260507143318 20 250 0.0 0.0 0.00 0.00 0.00 50 1024.1
20260507141818 21 238 1.6 6.4 0.00 0.00 0.00 49 1024.2
20260507140318 21 295 0.0 0.0 0.00 0.00 0.00 48 1024.3
20260507134819 21 115 4.8 25.7 0.00 0.00 0.00 50 1024.3
20260507133318 20 264 1.6 12.9 0.00 0.00 0.00 51 1024.3
20260507131818 20 295 3.2 12.9 0.00 0.00 0.00 51 1024.5
20260507130319 20 281 0.0 0.0 0.00 0.00 0.00 49 1024.7
20260507124818 20 177 0.0 0.0 0.00 0.00 0.00 52 1024.4
20260507123319 20 118 1.6 12.9 0.00 0.00 0.00 52 1024.7
20260507121818 20 274 1.6 12.9 0.00 0.00 0.00 52 1024.7
20260507120318 20 115 1.6 12.9 0.00 0.00 0.00 52 1024.6
20260507114818 21 317 1.6 6.4 0.00 0.00 0.00 50 1024.4
20260507113318 20 4 1.6 12.9 0.00 0.00 0.00 48 1024.8
20260507111817 19 263 1.6 12.9 0.00 0.00 0.00 52 1024.8
20260507110318 19 272 1.6 12.9 0.00 0.00 0.00 53 1025.1
20260507104818 20 313 0.0 6.4 0.00 0.00 0.00 53 1025.1
20260507103319 20 315 3.2 19.3 0.00 0.00 0.00 53 1025.0
20260507101818 20 312 1.6 12.9 0.00 0.00 0.00 52 1024.9
20260507100318 19 247 3.2 12.9 0.00 0.00 0.00 53 1025.1
20260507094818 20 256 4.8 19.3 0.00 0.00 0.00 51 1025.4
20260507093317 20 312 6.4 25.7 0.00 0.00 0.00 52 1025.1
20260507091819 20 133 4.8 33.8 0.00 0.00 0.00 51 1025.0
20260507090318 19 297 3.2 25.7 0.00 0.00 0.00 56 1024.7
20260507084818 20 105 3.2 12.9 0.00 0.00 0.00 54 1024.7
20260507083318 18 304 4.8 25.7 0.00 0.00 0.00 56 1024.3
20260507081818 18 308 3.2 19.3 0.00 0.00 0.00 57 1024.4
20260507080318 18 272 0.0 6.4 0.00 0.00 0.00 59 1024.2
20260507074818 18 231 0.0 6.4 0.00 0.00 0.00 59 1024.1
20260507073317 17 277 1.6 6.4 0.00 0.00 0.00 60 1023.9
20260507071818 17 323 4.8 25.7 0.00 0.00 0.00 61 1023.8
20260507070317 17 280 1.6 19.3 0.00 0.00 0.00 62 1023.9
20260507064817 16 200 3.2 12.9 0.00 0.00 0.00 64 1023.7
20260507063318 16 247 1.6 6.4 0.00 0.00 0.00 65 1023.4
20260507061818 16 277 3.2 12.9 0.00 0.00 0.00 66 1023.2
20260507060317 16 264 3.2 19.3 0.00 0.00 0.00 67 1023.2
20260507054817 15 245 3.2 12.9 0.00 0.00 0.00 68 1023.1
20260507053318 15 313 4.8 25.7 0.00 0.00 0.00 69 1023.3
20260507051818 15 300 0.0 6.4 0.00 0.00 0.00 75 1023.0
20260507050318 15 279 0.0 0.0 0.00 0.00 0.00 74 1022.4
20260507044824 15 257 0.0 6.4 0.00 0.00 0.00 74 1022.3
20260507043317 15 250 1.6 12.9 0.00 0.00 0.00 76 1022.1
20260507041818 15 298 1.6 6.4 0.00 0.00 0.00 77 1021.8
20260507040317 15 283 0.0 6.4 0.00 0.00 0.00 78 1021.7
20260507034817 14 277 0.0 0.0 0.00 0.00 0.00 80 1021.7
20260507033318 14 273 0.0 0.0 0.00 0.00 0.00 80 1021.6
20260507031818 14 247 0.0 0.0 0.00 0.00 0.00 82 1021.7
20260507030318 13 264 0.0 0.0 0.00 0.00 0.00 83 1021.3
20260507024817 13 264 0.0 0.0 0.00 0.00 0.00 84 1021.4
20260507023318 13 275 0.0 0.0 0.00 0.00 0.00 85 1021.2
20260507021819 14 16 0.0 6.4 0.00 0.00 0.00 84 1020.9
20260507020317 15 266 0.0 0.0 0.00 0.00 0.00 83 1021.2
20260507014818 15 233 0.0 0.0 0.00 0.00 0.00 82 1021.0
20260507013318 15 242 0.0 0.0 0.00 0.00 0.00 82 1021.0
20260507011818 15 98 0.0 6.4 0.00 0.00 0.00 81 1020.7
20260507010318 15 159 0.0 0.0 0.00 0.00 0.00 80 1020.8
20260507004818 15 285 0.0 6.4 0.00 0.00 0.00 80 1020.8
20260507003319 15 259 1.6 6.4 0.00 0.00 0.00 78 1020.4
20260507001817 16 283 0.0 0.0 0.00 0.00 0.00 76 1020.3
20260507000318 16 83 1.6 12.9 0.00 0.00 0.00 75 1020.2
20260506234818 16 112 3.2 12.9 0.00 0.00 0.00 74 1020.2
20260506233317 16 106 4.8 33.8 0.00 0.00 0.00 73 1020.1
20260506231817 17 178 1.6 12.9 0.00 0.00 0.00 73 1019.9
20260506230317 17 89 1.6 12.9 0.00 0.00 0.00 72 1019.8
20260506224817 17 239 6.4 53.1 0.00 0.00 0.00 72 1019.9
20260506223318 17 358 6.4 33.8 0.00 0.00 0.00 72 1019.6
20260506221817 17 177 1.6 19.3 0.00 0.00 0.00 72 1019.2
20260506220317 17 145 12.9 66.0 0.00 0.00 0.00 71 1019.0
20260506214818 17 175 6.4 33.8 0.00 0.00 0.00 71 1019.3
20260506213318 17 232 3.2 19.3 0.00 0.00 0.00 70 1019.0
20260506211817 18 217 8.0 40.2 0.00 0.00 0.00 70 1019.2
20260506210317 18 224 6.4 59.5 0.00 0.00 0.00 69 1019.3
20260506204818 18 275 4.8 19.3 0.00 0.00 0.00 69 1019.2
20260506203317 18 176 4.8 25.7 0.00 0.00 0.00 68 1019.0
20260506201818 18 175 4.8 25.7 0.00 0.00 0.00 66 1018.9
20260506200318 18 116 9.7 40.2 0.00 0.00 0.00 65 1019.1
20260506194817 19 252 4.8 33.8 0.00 0.00 0.00 65 1018.7
20260506193318 19 169 4.8 40.2 0.00 0.00 0.00 64 1018.6
20260506191818 19 185 3.2 19.3 0.00 0.00 0.00 64 1018.7
20260506190317 19 225 6.4 25.7 0.00 0.00 0.00 62 1018.5
20260506184818 20 203 8.0 40.2 0.00 0.00 0.00 61 1018.4
20260506183318 20 120 4.8 25.7 0.00 0.00 0.00 61 1018.3
20260506181818 20 203 6.4 40.2 0.00 0.00 0.00 60 1018.3
20260506180317 20 205 6.4 40.2 0.00 0.00 0.00 59 1018.1
20260506174817 21 187 1.6 12.9 0.00 0.00 0.00 59 1018.0
20260506173317 21 202 6.4 33.8 0.00 0.00 0.00 57 1017.9
20260506171817 21 197 4.8 25.7 0.00 0.00 0.00 55 1017.7
20260506170318 22 200 6.4 46.7 0.00 0.00 0.00 54 1018.1
20260506164818 22 159 8.0 53.1 0.00 0.00 0.00 53 1017.9
20260506163318 23 190 4.8 25.7 0.00 0.00 0.00 51 1018.3
20260506161817 23 272 1.6 19.3 0.00 0.00 0.00 50 1018.4
20260506160318 23 126 6.4 46.7 0.00 0.00 0.00 49 1018.0
20260506154817 23 128 11.3 59.5 0.00 0.00 0.00 48 1018.1
20260506153318 24 230 8.0 40.2 0.00 0.00 0.00 47 1018.3
20260506151818 24 250 3.2 25.7 0.00 0.00 0.00 47 1018.4